MINOTAUR 4 R/B, 45877

Orbit data source: Space-Track

MINOTAUR 4 R/B, 45877 is space debris in LEO originally from a launch on Wed, 15 Jul 2020 UTC launched from the Wallops Island (WLPIS). Debris objects in space refer to the collection of defunct objects orbiting the Earth. Examples of debris include non-operational satellites, rocket bodies, and fragments generated from explosions, collisions, or faulty payload assembly.

Loading next visibility...
Identifier
45877, 2020-046E
Orbit
LEO
Last TLE update
15 hours ago
Origin
Manufacturer
NGIS FSG
Mission
Spacecraft
Bus & Motor
ORION 38, Unknown motor
Mass
~500 kg wet, ~500 kg dry
Launch date (UTC)
2020-07-15 (5 years ago)
Launch vehicle
Unknown
Launch site
Wallops Island (WLPIS)
Object type
Payload
Rocket body
Debris
Shape & HBR
Cyl + 1 Nozzle, 1.34 m
Radar Cross Section
1.381 m², Large (>1 m²)

Expand to show TLE details & history

TLE from 15 hours ago
0 MINOTAUR 4 R/B
1 45877U 20046E   25181.74047061  .00001154  00000-0  99505-4 0  9992
2 45877  53.9806 332.8775 0009578 111.7227 248.4794 15.05124133195962
Epoch: 2025-06-30T17:46Z
TLE epoch observation values (Epoch: 2025-06-30T17:46:16.66Z)
Latitude
-0.00002°
Longitude
147.26213°
Altitude
554.542 km
Speed
7.584 km/s
True Right ascension
22h 11m 30s
True Declination
0° 00' 00"
Sunlit
Object was in full shadow at epoch
Visualization orbit readout
Latitude
-14.97932°
Longitude
-24.36312°
Altitude
554.641 km
Speed
7.585 km/s
Apparent Right ascension
09h 51m 30s
Apparent Declination
-27° 39' 47"
Sunlit
Object is in daylight
Visualization observer readout
Local Sidereal Time
20:37:44
Azimuth
303.158° NW
Elevation
-70.448°
Doppler factor
1
Orbital elements
Apogee altitude
557.885 km
Perigee altitude
544.611 km
Semi-major axis
6,929.385 km
Eccentricity
0.00096
Inclination
53.9806°
RAAN
332.8775°
Arg. of periapsis
111.7227°
True anomaly
Unknown
Mean anomaly
248.4794°
Eccentric anomaly
Unknown
Mean motion
3.76271 °/min
Orbital period
95.68 mins
BSTAR
0.000099505
Loading maneuver chart data...
Loading SW <> Apogee altitude chart data...
Loading historical data...
Loading historical data...
Loading historical data...
Loading historical data...
Loading historical data...
Loading historical data...
Loading historical data...

MINOTAUR 4 R/B Visibility forecast

Observer location: undefined°, undefined°

Span
Click to sort rows by Start time (UTC) header in descending order
Start Az.
Max El. time (UTC)
Max El. Az.
Max El.
End time (UTC)
End Az.
4 mins2025-07-01 11:27:31.880Z156.629° SSE2025-07-01 11:29:31.880Z122.166° SE16.728°2025-07-01 11:31:31.880Z89.814° E
6 mins2025-07-01 13:05:31.880Z243.826° WSW2025-07-01 13:08:31.880Z325.666° NNW41.237°2025-07-01 13:11:31.880Z39.696° NE
5 mins2025-07-01 18:08:31.880Z347.923° N2025-07-01 18:10:31.880Z26.057° NE20.019°2025-07-01 18:13:31.880Z74.922° E
6 mins2025-07-01 19:47:31.880Z307.69° NW2025-07-01 19:50:31.880Z192.362° SSW44.212°2025-07-01 19:53:31.880Z138.194° SSE
|